TimeMST,TemperatureF,Dew PointF,Humidity,Sea Level PressureIn,VisibilityMPH,Wind Direction,Wind SpeedMPH,Gust SpeedMPH,PrecipitationIn,Events,Conditions,WindDirDegrees,DateUTC
12:53 AM,34.0,28.0,79,30.38,10.0,ENE,9.2,-,N/A,,Overcast,70,2013-11-26 07:53:00
1:53 AM,34.0,28.0,79,30.39,10.0,ENE,6.9,-,N/A,,Overcast,60,2013-11-26 08:53:00
2:53 AM,34.0,27.0,75,30.39,10.0,ENE,8.1,-,N/A,,Overcast,60,2013-11-26 09:53:00
3:53 AM,34.0,27.0,75,30.39,10.0,Calm,Calm,-,N/A,,Overcast,0,2013-11-26 10:53:00
4:53 AM,34.0,28.0,79,30.40,10.0,NNE,5.8,-,N/A,,Overcast,30,2013-11-26 11:53:00
5:10 AM,34.0,27.0,75,30.35,10.0,NE,4.6,-,N/A,,Overcast,40,2013-11-26 12:10:00
5:38 AM,33.1,28.0,82,30.36,10.0,NNE,3.5,-,N/A,,Overcast,30,2013-11-26 12:38:00
5:53 AM,33.1,28.0,82,30.42,10.0,North,3.5,-,N/A,,Overcast,360,2013-11-26 12:53:00
6:53 AM,33.1,27.0,78,30.44,10.0,NNE,4.6,-,N/A,,Overcast,30,2013-11-26 13:53:00
7:53 AM,34.0,28.0,79,30.44,10.0,NE,3.5,-,N/A,,Overcast,50,2013-11-26 14:53:00
8:28 AM,35.1,28.0,76,30.41,10.0,East,4.6,-,N/A,,Overcast,80,2013-11-26 15:28:00
8:53 AM,35.1,28.0,76,30.46,10.0,East,4.6,-,N/A,,Overcast,90,2013-11-26 15:53:00
9:01 AM,36.0,28.0,73,30.41,10.0,East,5.8,-,N/A,,Overcast,80,2013-11-26 16:01:00
9:53 AM,36.0,28.9,76,30.47,10.0,Calm,Calm,-,N/A,,Overcast,0,2013-11-26 16:53:00
10:28 AM,37.0,28.9,73,30.43,10.0,ESE,4.6,-,N/A,,Overcast,120,2013-11-26 17:28:00
10:53 AM,37.9,28.9,70,30.46,10.0,Calm,Calm,-,N/A,,Overcast,0,2013-11-26 17:53:00
11:44 AM,39.9,30.0,68,30.41,10.0,Variable,5.8,-,N/A,,Overcast,0,2013-11-26 18:44:00
11:53 AM,39.9,28.9,65,30.44,10.0,Calm,Calm,-,N/A,,Overcast,0,2013-11-26 18:53:00
12:13 PM,39.9,28.9,65,30.40,10.0,Calm,Calm,-,N/A,,Overcast,0,2013-11-26 19:13:00
12:53 PM,39.9,28.9,65,30.42,10.0,Calm,Calm,-,N/A,,Overcast,0,2013-11-26 19:53:00
1:53 PM,39.9,28.0,63,30.41,10.0,Calm,Calm,-,N/A,,Overcast,0,2013-11-26 20:53:00
2:53 PM,39.0,28.9,67,30.41,10.0,NNW,5.8,-,N/A,,Overcast,330,2013-11-26 21:53:00
3:53 PM,39.9,28.0,63,30.41,10.0,Calm,Calm,-,N/A,,Overcast,0,2013-11-26 22:53:00
4:53 PM,39.0,28.9,67,30.40,10.0,NE,8.1,-,N/A,,Overcast,40,2013-11-26 23:53:00
5:48 PM,37.4,30.2,75,30.38,10.0,NNE,6.9,-,N/A,,Overcast,30,2013-11-27 00:48:00
5:53 PM,37.9,30.0,73,30.42,10.0,NE,9.2,-,N/A,,Overcast,40,2013-11-27 00:53:00
6:15 PM,37.0,30.0,76,30.38,10.0,North,5.8,-,N/A,,Overcast,10,2013-11-27 01:15:00
6:53 PM,36.0,30.0,79,30.43,10.0,NE,4.6,-,N/A,,Overcast,40,2013-11-27 01:53:00
7:08 PM,36.0,28.9,76,30.39,10.0,NE,5.8,-,N/A,,Overcast,40,2013-11-27 02:08:00
7:18 PM,35.1,28.9,78,30.39,10.0,NNE,5.8,-,N/A,,Mostly Cloudy,30,2013-11-27 02:18:00
7:29 PM,34.0,28.9,82,30.39,10.0,NNE,4.6,-,N/A,,Scattered Clouds,30,2013-11-27 02:29:00
7:53 PM,35.1,28.0,76,30.44,10.0,ENE,8.1,-,N/A,,Clear,60,2013-11-27 02:53:00
8:53 PM,33.1,27.0,78,30.45,10.0,Calm,Calm,-,N/A,,Clear,0,2013-11-27 03:53:00
9:53 PM,32.0,27.0,82,30.46,10.0,East,4.6,-,N/A,,Overcast,80,2013-11-27 04:53:00
10:53 PM,30.9,27.0,85,30.45,10.0,ENE,4.6,-,N/A,,Overcast,70,2013-11-27 05:53:00
11:53 PM,30.0,25.0,82,30.45,10.0,East,4.6,-,N/A,,Clear,80,2013-11-27 06:53:00